Visibility
15.0 15.0 15.0 15.0 15.0 15.0 15.0 15.0 15.0 15.0 15.0 15.0 10.3 0.1 15.0 3.7 15.0 15.0 15.0 15.0 15.0 15.0 4.0 15.0 15.0 15.0 15.0 15.0 15.0 15.0 2.2 15.0 15.0 15.0 15.0 15.0 15.0 15.0 15.0 15.0 15.0 15.0 15.0
15.0 15.0 15.0 15.0 15.0 15.0 15.0 15.0 15.0 15.0 15.0 15.0 15.0 15.0 15.0 15.0 15.0 15.0 15.0 15.0 15.0 15.0 13.7 4.2 15.0 15.0 15.0 15.0 15.0 15.0 15.0 15.0 15.0 15.0 15.0 15.0 15.0 15.0 15.0 15.0 15.0 15.0 15.0
15.0 15.0 15.0 15.0 15.0 15.0 15.0 15.0 15.0 15.0 15.0 15.0 15.0 15.0 15.0 15.0 12.0 15.0 15.0 15.0 15.0 15.0 13.3 3.8 14.7 15.0 15.0 15.0 15.0 15.0 15.0 15.0 15.0 15.0 15.0 15.0 15.0 15.0 15.0 15.0 15.0 15.0 15.0
15.0 15.0 15.0 15.0 15.0 15.0 15.0 15.0 15.0 15.0 15.0 15.0 15.0 15.0 15.0 15.0 15.0 15.0 15.0 15.0 15.0 15.0 15.0 12.0 6.4 15.0 15.0 15.0 15.0 15.0 15.0 15.0 15.0 15.0 15.0 15.0 15.0 15.0 15.0 15.0 15.0 15.0 15.0
15.0 15.0 15.0 15.0 15.0 15.0 15.0 15.0 15.0 15.0 15.0 15.0 15.0 15.0 15.0 15.0 15.0 14.6 15.0 15.0 15.0 15.0 15.0 6.5 9.5 14.6 15.0 15.0 15.0 15.0 15.0 15.0 15.0 15.0 15.0 15.0 15.0 15.0 15.0 15.0 15.0 15.0 15.0
15.0 15.0 15.0 15.0 13.3 12.4 15.0 15.0 15.0 15.0 15.0 15.0 15.0 15.0 15.0 14.9 6.5 3.3 3.7 15.0 12.3 15.0 15.0 15.0 11.9 15.0 15.0 15.0 15.0 15.0 15.0 15.0 15.0 15.0 15.0 15.0 15.0 15.0 15.0 15.0 15.0 15.0 15.0
15.0 15.0 15.0 15.0 10.0 4.6 15.0 15.0 15.0 15.0 15.0 15.0 15.0 15.0 15.0 2.7 4.4 5.4 6.0 10.1 7.8 15.0 15.0 13.8 15.0 15.0 15.0 15.0 15.0 15.0 15.0 15.0 15.0 15.0 15.0 15.0 15.0 15.0 15.0 15.0 15.0 15.0 15.0
15.0 15.0 15.0 15.0 15.0 15.0 15.0 15.0 15.0 15.0 15.0 15.0 15.0 5.5 6.6 7.1 6.1 14.9 11.1 15.0 9.9 15.0 15.0 15.0 15.0 15.0 15.0 15.0 15.0 15.0 15.0 15.0 15.0 15.0 15.0 15.0 15.0 15.0 15.0 15.0 15.0 15.0 15.0
15.0 15.0 15.0 15.0 15.0 15.0 15.0 15.0 15.0 15.0 15.0 15.0 5.6 13.6 7.6 9.9 6.3 7.9 15.0 14.2 15.0 15.0 15.0 15.0 15.0 15.0 15.0 15.0 15.0 15.0 15.0 15.0 15.0 15.0 15.0 15.0 15.0 15.0 15.0 15.0 15.0 15.0 15.0
15.0 15.0 15.0 15.0 15.0 15.0 15.0 13.8 11.5 14.9 15.0 13.3 14.8 15.0 11.1 8.5 7.7 10.6 15.0 15.0 15.0 15.0 15.0 15.0 15.0 15.0 15.0 15.0 15.0 15.0 15.0 15.0 15.0 15.0 15.0 15.0 15.0 15.0 15.0 15.0 15.0 15.0 15.0
15.0 15.0 15.0 15.0 15.0 15.0 15.0 15.0 10.6 10.9 15.0 15.0 15.0 10.9 7.6 9.0 14.2 6.2 14.5 15.0 13.1 15.0 15.0 15.0 15.0 15.0 15.0 15.0 15.0 15.0 15.0 15.0 15.0 15.0 15.0 15.0 15.0 15.0 15.0 15.0 15.0 15.0 15.0
15.0 15.0 15.0 15.0 15.0 15.0 15.0 15.0 15.0 8.9 14.9 15.0 15.0 15.0 3.3 4.3 5.4 5.4 15.0 13.7 15.0 15.0 15.0 15.0 15.0 15.0 15.0 15.0 15.0 15.0 15.0 15.0 15.0 15.0 15.0 15.0 15.0 15.0 15.0 15.0 15.0 15.0 15.0
15.0 15.0 15.0 15.0 15.0 15.0 15.0 15.0 15.0 15.0 9.6 10.9 14.6 14.9 14.9 2.4 4.9 6.4 14.0 15.0 15.0 15.0 15.0 15.0 15.0 15.0 15.0 15.0 15.0 15.0 15.0 15.0 15.0 15.0 15.0 15.0 15.0 15.0 15.0 15.0 15.0 15.0 15.0
15.0 15.0 15.0 15.0 15.0 15.0 15.0 15.0 15.0 15.0 15.0 15.0 9.6 1.8 15.0 6.2 6.9 3.8 4.2 6.6 10.0 15.0 15.0 15.0 15.0 15.0 15.0 15.0 15.0 15.0 15.0 15.0 15.0 15.0 15.0 15.0 15.0 15.0 15.0 15.0 15.0 15.0 15.0
15.0 15.0 15.0 15.0 15.0 15.0 15.0 15.0 15.0 15.0 15.0 15.0 7.5 10.4 14.1 15.0 13.6 14.1 3.3 3.6 3.5 12.7 8.7 15.0 15.0 15.0 15.0 15.0 15.0 15.0 15.0 15.0 15.0 15.0 15.0 15.0 15.0 15.0 15.0 15.0 15.0 15.0 15.0
14.9 15.0 15.0 15.0 15.0 15.0 15.0 15.0 15.0 15.0 15.0 6.8 12.9 9.7 13.6 14.8 15.0 15.0 14.4 15.0 6.2 1.4 5.1 6.3 5.2 13.9 14.8 15.0 15.0 15.0 15.0 15.0 15.0 15.0 15.0 15.0 15.0 15.0 15.0 15.0 15.0 15.0 15.0
1.3 13.8 15.0 15.0 15.0 15.0 15.0 15.0 15.0 15.0 15.0 14.4 4.1 15.0 11.4 0.1 0.3 2.2 2.6 1.2 1.6 1.5 0.3 0.6 1.9 3.6 5.8 5.3 8.0 14.6 15.0 15.0 15.0 15.0 15.0 15.0 15.0 14.9 13.3 13.2 15.0 15.0 15.0
11.8 1.4 11.0 15.0 15.0 15.0 15.0 15.0 15.0 15.0 15.0 15.0 13.9 1.2 12.4 0.2 0.2 0.2 0.1 0.3 15.0 0.5 0.3 1.4 2.0 5.4 1.6 4.8 3.7 3.6 4.7 4.0 3.4 4.5 2.9 3.6 4.0 4.4 6.1 7.3 12.2 14.3 15.0
15.0 11.4 1.1 1.6 15.0 15.0 15.0 15.0 15.0 15.0 15.0 7.0 8.9 3.0 13.2 0.3 0.2 0.1 0.1 0.1 0.2 1.5 3.4 15.0 14.9 12.5 5.6 3.0 2.8 0.4 0.3 0.4 0.4 12.5 11.2 12.0 12.3 14.4 15.0 14.9 14.5 15.0 14.6
15.0 15.0 11.1 15.0 15.0 15.0 15.0 15.0 15.0 15.0 15.0 14.8 2.2 15.0 15.0 11.7 0.1 0.1 0.1 0.2 7.2 0.3 0.7 0.2 14.1 5.8 15.0 0.9 0.6 0.1 0.2 0.1 0.2 13.8 15.0 15.0 15.0 15.0 15.0 9.6 3.4 0.2 7.9
15.0 15.0 15.0 15.0 15.0 15.0 15.0 15.0 15.0 15.0 15.0 15.0 15.0 15.0 15.0 15.0 15.0 15.0 15.0 1.1 0.2 0.2 0.2 0.2 3.0 3.3 2.2 0.3 6.1 0.5 0.4 5.6 10.2 9.6 0.1 12.2 15.0 15.0 15.0 15.0 13.1 5.6 15.0
15.0 15.0 15.0 15.0 15.0 15.0 15.0 15.0 15.0 15.0 15.0 15.0 15.0 15.0 15.0 15.0 15.0 15.0 15.0 15.0 15.0 15.0 7.3 10.3 0.5 15.0 14.7 15.0 15.0 12.8 1.0 14.3 3.4 0.2 10.9 15.0 15.0 15.0 15.0 4.8 14.0 15.0 13.1
15.0 15.0 15.0 15.0 15.0 15.0 15.0 15.0 15.0 15.0 15.0 15.0 15.0 15.0 15.0 15.0 15.0 15.0 15.0 15.0 15.0 13.5 15.0 15.0 1.7 0.3 6.1 0.9 15.0 15.0 15.0 9.5 6.6 15.0 15.0 15.0 15.0 15.0 15.0 15.0 15.0 14.2 0.2
0.9 12.8 15.0 14.9 15.0 15.0 15.0 15.0 15.0 15.0 15.0 15.0 15.0 15.0 15.0 15.0 15.0 15.0 15.0 15.0 15.0 15.0 12.9 0.4 0.1 0.1 0.1 0.1 0.8 13.1 15.0 15.0 15.0 15.0 15.0 15.0 15.0 15.0 15.0 14.3 1.6 0.3 4.0
0.2 0.2 0.3 0.2 0.0 0.1 15.0 15.0 15.0 15.0 15.0 15.0 15.0 15.0 15.0 15.0 15.0 15.0 15.0 15.0 15.0 15.0 6.8 1.0 0.1 0.0 0.0 0.1 15.0 15.0 15.0 15.0 15.0 15.0 15.0 9.6 14.5 0.2 0.1 0.1 0.1 0.2 0.7
0.1 0.1 0.4 1.5 0.2 0.1 0.1 15.0 15.0 15.0 15.0 15.0 15.0 15.0 15.0 15.0 15.0 15.0 15.0 15.0 15.0 15.0 15.0 15.0 3.0 3.0 10.5 15.0 15.0 15.0 15.0 15.0 15.0 15.0 0.4 0.1 0.2 0.1 0.1 0.1 0.1 0.2 0.6